WE0DX-1 Weather Reports


Display with metric or nautical units.
time (UTC)temp
F
wind
direction
speed
MPH
gust
MPH
rain 1hr
in
rain 24hr
in
rain mn
in
humidity
%
barometer
mb
20260903163653 92 136 0.0 0.0 0.00 0.00 0.00 54 1013.3
20260903163149 92 176 1.0 2.0 0.00 0.00 0.00 55 1013.4
20260903162645 91 82 2.0 5.0 0.00 0.00 0.00 55 1013.2
20260903162141 91 138 5.0 7.0 0.00 0.00 0.00 54 1013.5
20260903161636 91 182 2.0 3.0 0.00 0.00 0.00 55 1013.4
20260903161131 91 141 2.0 6.0 0.00 0.00 0.00 56 1013.6
20260903160626 91 115 5.0 7.0 0.00 0.00 0.00 56 1013.7
20260903160121 90 130 0.0 0.0 0.00 0.00 0.00 57 1013.5
20260903155620 90 185 0.0 2.0 0.00 0.00 0.00 56 1013.7
20260903155115 90 135 0.0 0.0 0.00 0.00 0.00 56 1013.5
20260903154611 89 234 2.0 5.0 0.00 0.00 0.00 56 1013.7
20260903154107 89 166 1.0 6.0 0.00 0.00 0.00 57 1013.4
20260903153602 89 186 5.0 7.0 0.00 0.00 0.00 57 1013.5
20260903153058 89 169 1.0 2.0 0.00 0.00 0.00 57 1013.6
20260903152554 89 224 2.0 6.0 0.00 0.00 0.00 57 1013.9
20260903152050 88 107 2.0 3.0 0.00 0.00 0.00 58 1013.5
20260903151549 89 144 3.0 5.0 0.00 0.00 0.00 58 1013.6
20260903151039 89 290 1.0 6.0 0.00 0.00 0.00 58 1013.5
20260903150538 89 104 0.0 1.0 0.00 0.00 0.00 60 1013.5
20260903150034 87 92 0.0 0.0 0.00 0.00 0.00 60 1013.6
20260903145527 87 103 1.0 2.0 0.00 0.00 0.00 60 1013.6
20260903145023 87 193 1.0 2.0 0.00 0.00 0.00 61 1013.8
20260903144522 87 208 2.0 2.0 0.00 0.00 0.00 60 1013.7
20260903144018 87 116 0.0 3.0 0.00 0.00 0.00 60 1013.7
20260903143514 86 185 0.0 2.0 0.00 0.00 0.00 61 1013.7
20260903143010 86 167 2.0 3.0 0.00 0.00 0.00 62 1013.6
20260903142505 86 163 0.0 0.0 0.00 0.00 0.00 61 1013.7
20260903142001 86 151 0.0 1.0 0.00 0.00 0.00 62 1013.7
20260903141456 86 219 2.0 6.0 0.00 0.00 0.00 62 1013.7
20260903140952 85 162 0.0 2.0 0.00 0.00 0.00 63 1013.8
20260903140447 85 230 3.0 3.0 0.00 0.00 0.00 63 1013.6
20260903135942 85 99 1.0 3.0 0.00 0.00 0.00 64 1013.6
20260903135438 84 154 1.0 2.0 0.00 0.00 0.00 64 1013.6
20260903134933 84 189 0.0 0.0 0.00 0.00 0.00 65 1013.6
20260903134432 83 133 0.0 0.0 0.00 0.00 0.00 66 1013.6
20260903133930 83 202 0.0 0.0 0.00 0.00 0.00 65 1013.7
20260903133426 83 109 0.0 0.0 0.00 0.00 0.00 67 1013.6
20260903132921 83 102 0.0 0.0 0.00 0.00 0.00 67 1013.4
20260903132416 83 125 1.0 2.0 0.00 0.00 0.00 67 1013.8
20260903131910 82 92 0.0 0.0 0.00 0.00 0.00 67 1013.7
20260903131405 82 120 0.0 0.0 0.00 0.00 0.00 68 1013.7
20260903130904 82 112 0.0 0.0 0.00 0.00 0.00 68 1013.7
20260903130359 82 83 0.0 0.0 0.00 0.00 0.00 68 1013.7
20260903125858 81 103 0.0 1.0 0.00 0.00 0.00 69 1013.5
20260903125352 81 90 0.0 0.0 0.00 0.00 0.00 69 1013.5
20260903124852 81 96 0.0 0.0 0.00 0.00 0.00 69 1013.4
20260903124342 81 116 0.0 0.0 0.00 0.00 0.00 68 1013.4
20260903123840 81 99 0.0 0.0 0.00 0.00 0.00 69 1013.4
20260903123335 81 4 1.0 1.0 0.00 0.00 0.00 69 1013.5
20260903122834 81 122 0.0 0.0 0.00 0.00 0.00 69 1013.5
20260903122329 81 100 0.0 0.0 0.00 0.00 0.00 68 1013.3
20260903121827 81 104 0.0 0.0 0.00 0.00 0.00 68 1013.2
20260903121323 81 105 0.0 0.0 0.00 0.00 0.00 68 1012.9
20260903120818 81 138 0.0 0.0 0.00 0.00 0.00 68 1013.1
20260903120312 80 135 0.0 0.0 0.00 0.00 0.00 69 1013.1
20260903115811 81 143 0.0 0.0 0.00 0.00 0.00 69 1013.1
20260903115306 81 118 0.0 0.0 0.00 0.00 0.00 68 1013.0
20260903114806 81 122 0.0 0.0 0.00 0.00 0.00 68 1012.9
20260903114302 81 163 1.0 1.0 0.00 0.00 0.00 67 1013.1
20260903113756 81 102 0.0 0.0 0.00 0.00 0.00 68 1012.8
20260903113252 81 126 0.0 0.0 0.00 0.00 0.00 67 1012.9
20260903112748 81 95 0.0 0.0 0.00 0.00 0.00 68 1012.8
20260903112244 81 167 0.0 0.0 0.00 0.00 0.00 67 1012.9
20260903111742 81 107 0.0 0.0 0.00 0.00 0.00 67 1012.7
20260903111238 81 90 0.0 0.0 0.00 0.00 0.00 67 1012.7
20260903110734 81 99 0.0 1.0 0.00 0.00 0.00 66 1012.8
20260903110229 82 92 0.0 1.0 0.00 0.00 0.00 66 1012.7
20260903105729 81 118 0.0 1.0 0.00 0.00 0.00 66 1012.7
20260903105224 81 183 0.0 0.0 0.00 0.00 0.00 66 1012.8
20260903104723 81 100 0.0 0.0 0.00 0.00 0.00 66 1012.7
20260903104219 81 100 0.0 0.0 0.00 0.00 0.00 66 1012.5
20260903103714 81 177 0.0 0.0 0.00 0.00 0.00 65 1012.5
20260903103210 81 153 0.0 0.0 0.00 0.00 0.00 65 1012.3
20260903102706 81 101 0.0 0.0 0.00 0.00 0.00 66 1012.5
20260903102200 81 139 0.0 0.0 0.00 0.00 0.00 65 1012.4
20260903101659 81 104 0.0 1.0 0.00 0.00 0.00 65 1012.4
20260903101155 81 70 0.0 0.0 0.00 0.00 0.00 64 1012.3
20260903100655 81 132 0.0 0.0 0.00 0.00 0.00 64 1012.4
20260903100154 82 140 0.0 1.0 0.00 0.00 0.00 64 1012.2
20260903095651 81 109 0.0 0.0 0.00 0.00 0.00 64 1012.2
20260903095146 82 147 0.0 0.0 0.00 0.00 0.00 63 1012.2
20260903094642 82 107 0.0 0.0 0.00 0.00 0.00 63 1012.4
20260903094137 82 125 0.0 0.0 0.00 0.00 0.00 63 1012.4
20260903093632 82 153 0.0 0.0 0.00 0.00 0.00 63 1012.5
20260903093127 82 100 0.0 0.0 0.00 0.00 0.00 62 1012.0
20260903092626 82 142 0.0 0.0 0.00 0.00 0.00 62 1012.2
20260903092121 82 118 0.0 0.0 0.00 0.00 0.00 62 1012.4
20260903091620 82 113 0.0 0.0 0.00 0.00 0.00 62 1012.3
20260903091114 82 140 0.0 0.0 0.00 0.00 0.00 62 1012.4
20260903090610 82 98 0.0 0.0 0.00 0.00 0.00 62 1012.3
20260903090108 82 113 0.0 0.0 0.00 0.00 0.00 62 1012.4
20260903085607 82 103 0.0 0.0 0.00 0.00 0.00 62 1012.4
20260903085103 82 116 0.0 0.0 0.00 0.00 0.00 61 1012.3
20260903084601 82 124 0.0 0.0 0.00 0.00 0.00 61 1012.2
20260903084056 82 136 0.0 0.0 0.00 0.00 0.00 61 1012.3
20260903083552 82 158 0.0 0.0 0.00 0.00 0.00 62 1012.4
20260903083052 82 90 0.0 0.0 0.00 0.00 0.00 62 1012.4
20260903082546 82 133 0.0 0.0 0.00 0.00 0.00 63 1012.4
20260903082041 82 92 0.0 0.0 0.00 0.00 0.00 63 1012.2
20260903081536 82 92 0.0 0.0 0.00 0.00 0.00 62 1012.2
20260903081032 82 89 0.0 0.0 0.00 0.00 0.00 62 1012.1
20260903080529 83 95 0.0 0.0 0.00 0.00 0.00 60 1012.0
20260903080025 83 79 0.0 0.0 0.00 0.00 0.00 60 1012.2
20260903075520 82 88 0.0 0.0 0.00 0.00 0.00 61 1012.2
20260903075015 82 134 0.0 0.0 0.00 0.00 0.00 61 1012.3
20260903074514 83 102 0.0 0.0 0.00 0.00 0.00 61 1012.4
20260903074009 83 103 0.0 0.0 0.00 0.00 0.00 60 1012.3
20260903073504 83 112 0.0 0.0 0.00 0.00 0.00 60 1012.1
20260903073000 83 105 0.0 0.0 0.00 0.00 0.00 59 1012.2
20260903072455 83 86 0.0 0.0 0.00 0.00 0.00 60 1012.3
20260903071952 83 106 0.0 0.0 0.00 0.00 0.00 60 1012.2
20260903071448 83 90 0.0 0.0 0.00 0.00 0.00 61 1012.2
20260903070944 83 100 0.0 0.0 0.00 0.00 0.00 61 1012.3
20260903070444 83 103 0.0 0.0 0.00 0.00 0.00 61 1012.3
20260903065943 82 110 0.0 0.0 0.00 0.00 0.00 62 1012.4
20260903065439 82 100 0.0 0.0 0.00 0.00 0.00 62 1012.4
20260903064938 82 98 0.0 0.0 0.00 0.00 0.00 62 1012.2
20260903064433 82 90 0.0 0.0 0.00 0.00 0.00 62 1012.4
20260903063928 82 100 0.0 0.0 0.00 0.00 0.00 62 1012.4
20260903063424 82 92 0.0 0.0 0.00 0.00 0.00 62 1012.5
20260903062920 83 86 0.0 0.0 0.00 0.00 0.00 61 1012.5
20260903062420 83 93 0.0 0.0 0.00 0.00 0.00 61 1012.5
20260903061915 83 87 0.0 0.0 0.00 0.00 0.00 61 1012.5
20260903061414 83 127 0.0 0.0 0.00 0.00 0.00 60 1012.4
20260903060911 84 107 0.0 0.0 0.00 0.00 0.00 59 1012.5
20260903060410 84 86 0.0 0.0 0.00 0.00 0.00 60 1012.2
20260903055908 84 104 0.0 0.0 0.00 0.00 0.00 59 1012.5
20260903055407 84 99 0.0 0.0 0.00 0.00 0.00 59 1012.8
20260903054901 84 121 0.0 0.0 0.00 0.00 0.00 59 1012.5
20260903054355 84 95 0.0 0.0 0.00 0.00 0.00 59 1012.7
20260903053852 84 90 0.0 0.0 0.00 0.00 0.00 59 1012.4
20260903053346 84 100 0.0 0.0 0.00 0.00 0.00 58 1012.2
20260903052843 84 100 0.0 0.0 0.00 0.00 0.00 58 1012.2
20260903052338 85 105 0.0 0.0 0.00 0.00 0.00 58 1012.4
20260903051834 85 95 0.0 0.0 0.00 0.00 0.00 58 1012.4
20260903051329 85 104 0.0 0.0 0.00 0.00 0.00 58 1012.4
20260903050825 84 93 0.0 0.0 0.00 0.00 0.00 58 1012.2
20260903050323 84 90 0.0 0.0 0.00 0.00 0.00 59 1012.3
20260903045818 85 88 0.0 0.0 0.00 0.00 0.00 59 1012.3
20260903045314 85 106 0.0 0.0 0.00 0.00 0.00 58 1012.1
20260903044811 85 97 0.0 0.0 0.00 0.00 0.00 58 1012.2
20260903044305 85 99 0.0 0.0 0.00 0.00 0.00 58 1012.3
20260903043802 85 98 0.0 0.0 0.00 0.00 0.00 58 1012.4
20260903043302 86 105 0.0 0.0 0.00 0.00 0.00 57 1012.4
20260903042800 86 96 0.0 0.0 0.00 0.00 0.00 57 1012.5
20260903042251 86 95 0.0 0.0 0.00 0.00 0.00 57 1012.3
20260903041747 86 121 0.0 0.0 0.00 0.00 0.00 57 1012.3
20260903041243 86 75 0.0 0.0 0.00 0.00 0.00 56 1012.4
20260903040742 86 100 0.0 0.0 0.00 0.00 0.00 56 1012.5
20260903040237 86 102 0.0 0.0 0.00 0.00 0.00 56 1012.3
20260903035733 86 115 0.0 0.0 0.00 0.00 0.00 56 1012.5
20260903035229 86 103 0.0 0.0 0.00 0.00 0.00 56 1012.5
20260903034728 86 99 0.0 0.0 0.00 0.00 0.00 56 1012.7
20260903034224 86 88 0.0 0.0 0.00 0.00 0.00 56 1012.5
20260903033719 87 103 0.0 0.0 0.00 0.00 0.00 56 1012.3
20260903033214 87 97 0.0 0.0 0.00 0.00 0.00 55 1012.5
20260903032708 87 97 0.0 0.0 0.00 0.00 0.00 55 1012.7
20260903032204 87 121 0.0 0.0 0.00 0.00 0.00 54 1012.7
20260903031700 87 107 0.0 0.0 0.00 0.00 0.00 54 1012.2
20260903031154 87 95 0.0 0.0 0.00 0.00 0.00 54 1012.4
20260903030650 88 133 0.0 0.0 0.00 0.00 0.00 53 1012.5
20260903030145 88 112 0.0 0.0 0.00 0.00 0.00 53 1012.4
20260903025640 88 112 0.0 0.0 0.00 0.00 0.00 53 1012.3
20260903025136 88 108 0.0 0.0 0.00 0.00 0.00 53 1012.3
20260903024630 88 104 0.0 0.0 0.00 0.00 0.00 52 1012.1
20260903024124 88 96 0.0 0.0 0.00 0.00 0.00 52 1012.1
20260903023620 88 94 0.0 0.0 0.00 0.00 0.00 52 1012.7
20260903023120 88 117 0.0 0.0 0.00 0.00 0.00 52 1012.1
20260903022615 89 89 0.0 0.0 0.00 0.00 0.00 52 1012.4
20260903022114 88 98 0.0 0.0 0.00 0.00 0.00 52 1012.3
20260903021608 89 91 0.0 0.0 0.00 0.00 0.00 52 1012.3
20260903021103 89 89 0.0 0.0 0.00 0.00 0.00 51 1012.3
20260903020559 89 94 0.0 0.0 0.00 0.00 0.00 51 1012.1
20260903020058 89 88 0.0 0.0 0.00 0.00 0.00 51 1012.0
20260903015554 89 105 0.0 0.0 0.00 0.00 0.00 50 1011.9
20260903015043 89 94 0.0 0.0 0.00 0.00 0.00 50 1011.9
20260903014543 90 97 0.0 0.0 0.00 0.00 0.00 48 1011.9
20260903014038 90 96 0.0 0.0 0.00 0.00 0.00 48 1011.9
20260903013537 90 95 0.0 0.0 0.00 0.00 0.00 48 1011.8
20260903013032 90 93 0.0 0.0 0.00 0.00 0.00 47 1011.4
20260903012525 90 98 0.0 0.0 0.00 0.00 0.00 48 1011.7
20260903012019 90 106 0.0 0.0 0.00 0.00 0.00 47 1011.9
20260903011519 90 127 0.0 0.0 0.00 0.00 0.00 48 1011.3
20260903011014 91 94 0.0 0.0 0.00 0.00 0.00 48 1011.4
20260903010509 91 106 0.0 0.0 0.00 0.00 0.00 48 1011.5
20260903010007 91 95 0.0 0.0 0.00 0.00 0.00 47 1011.5
20260903005502 92 93 0.0 0.0 0.00 0.00 0.00 47 1011.7
20260903004958 92 112 0.0 0.0 0.00 0.00 0.00 45 1011.4
20260903004458 93 95 0.0 0.0 0.00 0.00 0.00 45 1011.5
20260903003954 93 102 0.0 0.0 0.00 0.00 0.00 45 1011.5
20260903003449 93 102 0.0 0.0 0.00 0.00 0.00 45 1011.5
20260903002944 93 103 0.0 0.0 0.00 0.00 0.00 44 1011.5
20260903002444 93 126 0.0 0.0 0.00 0.00 0.00 44 1011.4
20260903001944 93 106 0.0 0.0 0.00 0.00 0.00 44 1011.7
20260903001444 94 98 0.0 0.0 0.00 0.00 0.00 45 1011.4
20260903000938 94 93 0.0 0.0 0.00 0.00 0.00 44 1011.7
20260903000434 94 115 0.0 0.0 0.00 0.00 0.00 44 1011.5
20260902235932 94 97 0.0 0.0 0.00 0.00 0.00 44 1011.4
20260902235427 95 98 0.0 0.0 0.00 0.00 0.00 44 1011.6
20260902234926 95 89 0.0 0.0 0.00 0.00 0.00 43 1011.7
20260902234421 95 108 0.0 0.0 0.00 0.00 0.00 43 1011.6
20260902233921 95 156 2.0 6.0 0.00 0.00 0.00 43 1011.5
20260902233415 95 128 0.0 0.0 0.00 0.00 0.00 43 1011.5
20260902232915 96 130 0.0 0.0 0.00 0.00 0.00 43 1011.5
20260902232410 96 126 0.0 0.0 0.00 0.00 0.00 43 1011.8
20260902231909 96 105 0.0 0.0 0.00 0.00 0.00 43 1011.4
20260902231403 96 129 1.0 3.0 0.00 0.00 0.00 42 1011.6
20260902230852 96 101 0.0 0.0 0.00 0.00 0.00 42 1011.7
20260902230352 96 109 0.0 2.0 0.00 0.00 0.00 42 1011.7
20260902225846 97 83 0.0 0.0 0.00 0.00 0.00 42 1011.7
20260902225342 96 172 2.0 5.0 0.00 0.00 0.00 41 1011.8
20260902224840 97 123 0.0 1.0 0.00 0.00 0.00 41 1011.8
20260902224335 97 106 1.0 2.0 0.00 0.00 0.00 40 1011.6
20260902223832 97 128 0.0 0.0 0.00 0.00 0.00 40 1011.5
20260902223331 97 57 0.0 7.0 0.00 0.00 0.00 40 1011.7
20260902222831 97 200 0.0 1.0 0.00 0.00 0.00 40 1011.5
20260902222329 97 224 1.0 1.0 0.00 0.00 0.00 40 1011.6
20260902221824 97 127 0.0 0.0 0.00 0.00 0.00 42 1011.7
20260902221323 98 190 0.0 0.0 0.00 0.00 0.00 41 1011.6
20260902220819 97 196 3.0 6.0 0.00 0.00 0.00 40 1011.7
20260902220319 97 99 0.0 2.0 0.00 0.00 0.00 42 1011.6
20260902215814 97 190 3.0 6.0 0.00 0.00 0.00 40 1011.7
20260902215309 97 114 0.0 0.0 0.00 0.00 0.00 42 1011.6
20260902214805 97 100 0.0 0.0 0.00 0.00 0.00 41 1011.9
20260902214304 97 212 2.0 5.0 0.00 0.00 0.00 41 1011.9
20260902213800 97 64 1.0 2.0 0.00 0.00 0.00 40 1012.1
20260902213255 97 217 3.0 3.0 0.00 0.00 0.00 42 1012.0
20260902212753 97 177 0.0 6.0 0.00 0.00 0.00 41 1011.9
20260902212250 97 127 0.0 0.0 0.00 0.00 0.00 42 1012.2
20260902211745 96 179 0.0 1.0 0.00 0.00 0.00 43 1012.1
20260902211241 96 201 1.0 2.0 0.00 0.00 0.00 43 1012.4
20260902210735 97 179 3.0 5.0 0.00 0.00 0.00 42 1012.1
20260902210230 98 214 0.0 0.0 0.00 0.00 0.00 43 1012.7
20260902205728 98 174 2.0 3.0 0.00 0.00 0.00 42 1012.5
20260902205224 98 197 2.0 3.0 0.00 0.00 0.00 43 1012.2
20260902204719 98 154 4.0 6.0 0.00 0.00 0.00 42 1012.7
20260902204214 98 130 0.0 2.0 0.00 0.00 0.00 41 1012.4
20260902203709 98 151 0.0 2.0 0.00 0.00 0.00 42 1012.7
20260902203203 98 199 2.0 5.0 0.00 0.00 0.00 40 1012.4
20260902202653 98 188 3.0 3.0 0.00 0.00 0.00 38 1012.9
20260902202149 98 131 2.0 9.0 0.00 0.00 0.00 41 1012.8
20260902201645 98 192 0.0 0.0 0.00 0.00 0.00 42 1013.0
20260902201139 98 142 0.0 0.0 0.00 0.00 0.00 41 1013.0
20260902200633 99 150 3.0 5.0 0.00 0.00 0.00 40 1013.0
20260902200130 99 121 1.0 2.0 0.00 0.00 0.00 42 1013.2
20260902195625 98 106 5.0 11.0 0.00 0.00 0.00 43 1013.0
20260902195125 98 73 0.0 0.0 0.00 0.00 0.00 42 1013.1
20260902194624 98 124 0.0 3.0 0.00 0.00 0.00 43 1013.3
20260902194119 98 154 3.0 8.0 0.00 0.00 0.00 43 1013.0
20260902193615 98 209 3.0 3.0 0.00 0.00 0.00 42 1013.3
20260902193114 98 136 0.0 1.0 0.00 0.00 0.00 43 1013.3
20260902192613 97 204 2.0 3.0 0.00 0.00 0.00 44 1013.4
20260902192112 98 139 0.0 5.0 0.00 0.00 0.00 43 1013.4
20260902191607 98 119 1.0 2.0 0.00 0.00 0.00 45 1013.5
20260902191101 97 127 3.0 6.0 0.00 0.00 0.00 43 1013.4
20260902190557 98 115 2.0 7.0 0.00 0.00 0.00 44 1013.6
20260902190052 98 76 0.0 3.0 0.00 0.00 0.00 46 1013.5
20260902185548 97 154 3.0 8.0 0.00 0.00 0.00 45 1013.8
20260902185044 96 211 1.0 5.0 0.00 0.00 0.00 47 1014.0
20260902184538 97 184 0.0 0.0 0.00 0.00 0.00 46 1014.0
20260902184034 96 133 0.0 2.0 0.00 0.00 0.00 46 1014.0
20260902183530 96 145 3.0 6.0 0.00 0.00 0.00 46 1014.1
20260902183026 97 115 2.0 3.0 0.00 0.00 0.00 47 1014.4
20260902182522 96 146 6.0 9.0 0.00 0.00 0.00 47 1014.2
20260902182018 96 118 0.0 1.0 0.00 0.00 0.00 46 1014.3
20260902181514 97 156 0.0 6.0 0.00 0.00 0.00 48 1014.2
20260902181008 96 157 0.0 0.0 0.00 0.00 0.00 50 1014.4
20260902180509 96 143 0.0 0.0 0.00 0.00 0.00 49 1014.6
20260902180006 95 209 0.0 1.0 0.00 0.00 0.00 49 1014.3
20260902175459 95 165 1.0 3.0 0.00 0.00 0.00 48 1014.4
20260902174955 95 253 2.0 3.0 0.00 0.00 0.00 49 1014.6
20260902174451 96 140 1.0 7.0 0.00 0.00 0.00 50 1014.5
20260902173946 96 79 1.0 2.0 0.00 0.00 0.00 49 1014.7
20260902173446 95 79 0.0 0.0 0.00 0.00 0.00 51 1014.8
20260902172941 95 122 0.0 0.0 0.00 0.00 0.00 50 1014.9
20260902172440 95 209 0.0 0.0 0.00 0.00 0.00 51 1015.0
20260902171936 94 213 0.0 7.0 0.00 0.00 0.00 50 1014.8
20260902171431 93 133 1.0 2.0 0.00 0.00 0.00 51 1015.2
20260902170927 93 247 3.0 3.0 0.00 0.00 0.00 51 1015.0
20260902170422 93 192 2.0 3.0 0.00 0.00 0.00 51 1015.0
20260902165918 93 209 2.0 2.0 0.00 0.00 0.00 52 1015.2
20260902165417 93 184 3.0 3.0 0.00 0.00 0.00 51 1015.1
20260902164912 93 214 3.0 5.0 0.00 0.00 0.00 53 1015.2
20260902164407 92 160 1.0 3.0 0.00 0.00 0.00 53 1015.2
20260902163906 92 201 0.0 2.0 0.00 0.00 0.00 54 1015.4